RPC1767 RPUI-RPUK

Flight info

Callsign RPC1767
Flight time N/A
Altitude 4500
Route RPUI RPUK
Aircraft C172/L-S/C

Departure

Time 2026-04-30 11:49
Airport Iba Airport (RPUI)

Arrival

Time N/A
Airport Calapan National Airport (RPUK)
Time Latitude Longitude Altitude Speed Heading
2026-04-30 11:35 15.32509 119.96990 -9 ft 0 kts 51°
2026-04-30 11:45 15.32510 119.96991 -10 ft 1 kts 50°
2026-04-30 11:45 15.32509 119.96998 -10 ft 2 kts 129°
2026-04-30 11:45 15.32470 119.97004 -11 ft 7 kts 178°
2026-04-30 11:45 15.32419 119.97002 -12 ft 8 kts 179°
2026-04-30 11:46 15.32353 119.97044 -14 ft 11 kts 147°
2026-04-30 11:46 15.32315 119.97080 -18 ft 5 kts 84°
2026-04-30 11:46 15.32311 119.97095 -16 ft 2 kts 165°
2026-04-30 11:46 15.32303 119.97090 -16 ft 1 kts 255°
2026-04-30 11:47 15.32304 119.97083 -16 ft 2 kts 303°
2026-04-30 11:47 15.32321 119.97076 -16 ft 0 kts 315°
2026-04-30 11:48 15.33008 119.96492 199 ft 68 kts 322°
2026-04-30 11:48 15.33348 119.96138 417 ft 67 kts 320°
2026-04-30 11:48 15.33689 119.95733 484 ft 85 kts 316°
2026-04-30 11:49 15.34111 119.95228 548 ft 96 kts 316°
2026-04-30 11:49 15.34509 119.94715 779 ft 88 kts 313°
2026-04-30 11:50 15.34091 119.93005 1235 ft 107 kts 204°
2026-04-30 11:50 15.32644 119.93189 1650 ft 92 kts 167°
2026-04-30 11:50 15.32438 119.93238 1716 ft 88 kts 166°
2026-04-30 11:51 15.30716 119.93729 2029 ft 106 kts 158°
2026-04-30 11:51 15.29992 119.93952 2184 ft 110 kts 158°
2026-04-30 11:51 15.29653 119.94059 2258 ft 111 kts 159°
2026-04-30 11:52 15.28671 119.94381 2484 ft 110 kts 156°
2026-04-30 11:52 15.27972 119.94631 2727 ft 102 kts 156°
2026-04-30 11:52 15.27334 119.94870 2948 ft 94 kts 157°
2026-04-30 11:52 15.26749 119.95092 3162 ft 84 kts 155°
2026-04-30 11:53 15.26225 119.95280 3365 ft 75 kts 155°
2026-04-30 11:53 15.26062 119.95338 3393 ft 78 kts 156°
2026-04-30 11:53 15.24468 119.95904 3669 ft 94 kts 156°
2026-04-30 11:54 15.23837 119.96132 3787 ft 97 kts 155°
2026-04-30 11:54 15.23191 119.96368 3894 ft 99 kts 155°
2026-04-30 11:54 15.22555 119.96601 4041 ft 97 kts 156°
2026-04-30 11:54 15.21922 119.96830 4187 ft 95 kts 155°
2026-04-30 11:55 15.21307 119.97051 4349 ft 92 kts 156°
2026-04-30 11:55 15.20707 119.97262 4489 ft 92 kts 155°
2026-04-30 11:55 15.20068 119.97494 4501 ft 103 kts 156°
2026-04-30 11:55 15.19371 119.97755 4507 ft 107 kts 156°
2026-04-30 11:56 15.18677 119.98011 4507 ft 106 kts 156°
2026-04-30 11:56 15.17985 119.98271 4507 ft 106 kts 156°
2026-04-30 11:56 15.17290 119.98531 4506 ft 106 kts 156°
2026-04-30 11:56 15.16592 119.98795 4507 ft 107 kts 156°
2026-04-30 11:57 15.15904 119.99055 4510 ft 107 kts 156°
2026-04-30 11:57 15.15207 119.99321 4511 ft 107 kts 156°
2026-04-30 11:57 15.14507 119.99589 4511 ft 107 kts 156°
2026-04-30 11:57 15.13804 119.99858 4511 ft 107 kts 156°
2026-04-30 11:58 15.11847 120.00596 4488 ft 100 kts 156°
2026-04-30 11:59 15.10899 120.00951 4488 ft 98 kts 156°
2026-04-30 12:00 15.08135 120.01977 4493 ft 94 kts 156°
2026-04-30 12:00 15.06712 120.02503 4490 ft 94 kts 156°
2026-04-30 12:00 15.06167 120.02825 4493 ft 90 kts 133°
2026-04-30 12:01 15.05733 120.03298 4492 ft 91 kts 129°
2026-04-30 12:01 15.05449 120.03621 4495 ft 91 kts 129°
2026-04-30 12:01 15.05020 120.04110 4498 ft 92 kts 129°
2026-04-30 12:01 15.04591 120.04595 4497 ft 90 kts 129°
2026-04-30 12:02 15.04168 120.05072 4495 ft 90 kts 129°
2026-04-30 12:02 15.03313 120.06099 4512 ft 95 kts 128°
2026-04-30 12:02 15.02875 120.06628 4505 ft 98 kts 128°
2026-04-30 12:03 15.02427 120.07169 4507 ft 99 kts 128°
2026-04-30 12:03 15.01535 120.08232 4503 ft 97 kts 128°
2026-04-30 12:03 15.01091 120.08767 4497 ft 98 kts 128°
2026-04-30 12:04 15.00655 120.09289 4488 ft 94 kts 128°
2026-04-30 12:04 15.00226 120.09793 4493 ft 94 kts 128°
2026-04-30 12:04 14.99791 120.10310 4492 ft 96 kts 128°
2026-04-30 12:04 14.99649 120.10481 4491 ft 96 kts 128°
2026-04-30 12:05 14.98512 120.11854 4500 ft 97 kts 128°
2026-04-30 12:05 14.98071 120.12387 4508 ft 98 kts 128°
2026-04-30 12:05 14.97621 120.12927 4505 ft 100 kts 129°
2026-04-30 12:06 14.97166 120.13481 4508 ft 102 kts 128°
2026-04-30 12:06 14.96707 120.14034 4506 ft 101 kts 128°
2026-04-30 12:06 14.96254 120.14576 4500 ft 97 kts 128°
2026-04-30 12:06 14.95821 120.15087 4496 ft 95 kts 128°
2026-04-30 12:07 14.95385 120.15602 4493 ft 95 kts 128°
2026-04-30 12:07 14.94952 120.16113 4492 ft 93 kts 128°
2026-04-30 12:07 14.94532 120.16607 4490 ft 90 kts 128°
2026-04-30 12:07 14.94120 120.17097 4491 ft 90 kts 128°
2026-04-30 12:08 14.93705 120.17590 4490 ft 91 kts 128°
2026-04-30 12:08 14.93293 120.18080 4493 ft 91 kts 128°
2026-04-30 12:08 14.92879 120.18575 4497 ft 91 kts 128°
2026-04-30 12:08 14.92446 120.19061 4494 ft 93 kts 140°
2026-04-30 12:09 14.91871 120.19393 4504 ft 95 kts 147°
2026-04-30 12:09 14.91290 120.19722 4507 ft 95 kts 147°
2026-04-30 12:09 14.90707 120.20051 4505 ft 98 kts 147°
2026-04-30 12:09 14.90104 120.20390 4512 ft 99 kts 147°
2026-04-30 12:10 14.89487 120.20734 4509 ft 101 kts 147°
2026-04-30 12:10 14.88866 120.21082 4506 ft 100 kts 146°
2026-04-30 12:10 14.88244 120.21422 4508 ft 100 kts 148°
2026-04-30 12:10 14.87642 120.21754 4499 ft 98 kts 147°
2026-04-30 12:11 14.87045 120.22087 4495 ft 97 kts 148°
2026-04-30 12:11 14.86416 120.22344 4494 ft 97 kts 155°
2026-04-30 12:11 14.85782 120.22584 4489 ft 97 kts 155°
2026-04-30 12:11 14.85150 120.22821 4493 ft 96 kts 155°
2026-04-30 12:12 14.84521 120.23056 4490 ft 96 kts 155°
2026-04-30 12:12 14.83900 120.23287 4494 ft 95 kts 155°
2026-04-30 12:12 14.83274 120.23517 4488 ft 95 kts 156°
2026-04-30 12:12 14.83058 120.23578 4491 ft 96 kts 165°
2026-04-30 12:13 14.80119 120.23940 4491 ft 96 kts 168°
2026-04-30 12:14 14.79246 120.24051 4490 ft 95 kts 168°
2026-04-30 12:14 14.78591 120.24134 4488 ft 95 kts 168°
2026-04-30 12:14 14.77930 120.24218 4489 ft 96 kts 168°
2026-04-30 12:14 14.77280 120.24300 4490 ft 95 kts 168°
2026-04-30 12:15 14.76625 120.24371 4487 ft 95 kts 173°
2026-04-30 12:15 14.75972 120.24383 4495 ft 93 kts 174°
2026-04-30 12:15 14.75324 120.24388 4491 ft 93 kts 176°
2026-04-30 12:15 14.75104 120.24379 4494 ft 94 kts 177°
2026-04-30 12:17 14.71315 120.24357 4491 ft 93 kts 174°
2026-04-30 12:18 14.68777 120.24366 4500 ft 95 kts 174°
2026-04-30 12:18 14.68126 120.24435 4497 ft 92 kts 146°
2026-04-30 12:18 14.67229 120.25182 4501 ft 90 kts 137°
2026-04-30 12:19 14.66738 120.25586 4507 ft 90 kts 137°
2026-04-30 12:19 14.66412 120.25854 4505 ft 90 kts 137°
2026-04-30 12:19 14.65517 120.26726 4504 ft 88 kts 125°
2026-04-30 12:20 14.64284 120.28312 4498 ft 87 kts 125°
2026-04-30 12:20 14.63904 120.28797 4499 ft 86 kts 125°
2026-04-30 12:21 14.63525 120.29278 4499 ft 86 kts 126°
2026-04-30 12:21 14.63142 120.29749 4494 ft 87 kts 128°
2026-04-30 12:21 14.62738 120.30213 4493 ft 87 kts 128°
2026-04-30 12:21 14.62340 120.30678 4493 ft 86 kts 127°
2026-04-30 12:22 14.61938 120.31136 4493 ft 86 kts 129°
2026-04-30 12:22 14.61526 120.31585 4491 ft 86 kts 129°
2026-04-30 12:22 14.61114 120.32037 4495 ft 87 kts 129°
2026-04-30 12:23 14.59536 120.33131 4499 ft 89 kts 149°
2026-04-30 12:24 14.57232 120.34101 4501 ft 91 kts 152°
2026-04-30 12:24 14.56642 120.34347 4497 ft 91 kts 152°
2026-04-30 12:24 14.55995 120.34619 4501 ft 92 kts 152°
2026-04-30 12:25 14.55398 120.34865 4503 ft 92 kts 152°
2026-04-30 12:25 14.54799 120.35102 4503 ft 93 kts 156°
2026-04-30 12:25 14.54179 120.35285 4501 ft 94 kts 158°
2026-04-30 12:25 14.53544 120.35455 4505 ft 95 kts 160°
2026-04-30 12:26 14.52901 120.35612 4500 ft 95 kts 160°
2026-04-30 12:26 14.52258 120.35770 4499 ft 95 kts 161°
2026-04-30 12:26 14.51624 120.35930 4498 ft 95 kts 160°
2026-04-30 12:26 14.50982 120.36089 4494 ft 95 kts 161°
2026-04-30 12:27 14.50333 120.36231 4501 ft 96 kts 163°
2026-04-30 12:27 14.49672 120.36333 4501 ft 97 kts 170°
2026-04-30 12:27 14.48988 120.36313 4502 ft 100 kts 183°
2026-04-30 12:27 14.48314 120.36173 4499 ft 101 kts 191°
2026-04-30 12:28 14.47866 120.36024 4498 ft 102 kts 192°
2026-04-30 12:28 14.46322 120.35500 4495 ft 102 kts 192°
2026-04-30 12:29 14.43611 120.34502 4488 ft 102 kts 194°
2026-04-30 12:29 14.42943 120.34248 4491 ft 102 kts 194°
2026-04-30 12:30 14.42283 120.33997 4490 ft 102 kts 194°
2026-04-30 12:30 14.41615 120.33741 4490 ft 103 kts 194°
2026-04-30 12:30 14.40943 120.33489 4488 ft 102 kts 192°
2026-04-30 12:30 14.40261 120.33282 4493 ft 102 kts 188°
2026-04-30 12:31 14.39573 120.33133 4493 ft 101 kts 184°
2026-04-30 12:31 14.38881 120.33013 4492 ft 100 kts 181°
2026-04-30 12:31 14.38191 120.32923 4489 ft 99 kts 178°
2026-04-30 12:31 14.37512 120.32880 4484 ft 98 kts 175°
2026-04-30 12:32 14.36831 120.32869 4482 ft 98 kts 173°
2026-04-30 12:32 14.36146 120.32863 4486 ft 98 kts 173°
2026-04-30 12:32 14.35472 120.32904 4481 ft 96 kts 166°
2026-04-30 12:32 14.34821 120.32998 4478 ft 95 kts 162°
2026-04-30 12:33 14.34180 120.33134 4480 ft 94 kts 160°
2026-04-30 12:33 14.33545 120.33287 4481 ft 93 kts 156°
2026-04-30 12:33 14.32930 120.33485 4479 ft 92 kts 152°
2026-04-30 12:33 14.32345 120.33735 4484 ft 91 kts 148°
2026-04-30 12:34 14.31766 120.34003 4487 ft 91 kts 148°
2026-04-30 12:34 14.31186 120.34274 4487 ft 92 kts 148°
2026-04-30 12:34 14.30619 120.34555 4489 ft 91 kts 144°
2026-04-30 12:34 14.30078 120.34893 4490 ft 91 kts 141°
2026-04-30 12:35 14.29542 120.35236 4489 ft 90 kts 140°
2026-04-30 12:35 14.29006 120.35580 4490 ft 91 kts 143°
2026-04-30 12:35 14.28449 120.35889 4489 ft 91 kts 145°
2026-04-30 12:35 14.27891 120.36196 4487 ft 91 kts 146°
2026-04-30 12:36 14.27326 120.36474 4487 ft 91 kts 147°
2026-04-30 12:36 14.26749 120.36748 4485 ft 91 kts 148°
2026-04-30 12:36 14.26177 120.37029 4485 ft 91 kts 147°
2026-04-30 12:36 14.25603 120.37310 4484 ft 91 kts 147°
2026-04-30 12:37 14.25027 120.37590 4490 ft 91 kts 147°
2026-04-30 12:37 14.24421 120.37812 4491 ft 93 kts 156°
2026-04-30 12:37 14.24010 120.37942 4493 ft 93 kts 155°
2026-04-30 12:37 14.23390 120.38140 4491 ft 93 kts 155°
2026-04-30 12:38 14.22565 120.38404 4494 ft 93 kts 156°
2026-04-30 12:38 14.22139 120.38520 4495 ft 94 kts 158°
2026-04-30 12:38 14.21511 120.38686 4495 ft 94 kts 158°
2026-04-30 12:38 14.20875 120.38854 4494 ft 94 kts 158°
2026-04-30 12:39 14.20236 120.39023 4491 ft 95 kts 158°
2026-04-30 12:39 14.19596 120.39195 4498 ft 95 kts 158°
2026-04-30 12:39 14.18953 120.39370 4503 ft 96 kts 158°
2026-04-30 12:39 14.18314 120.39562 4504 ft 95 kts 153°
2026-04-30 12:40 14.17687 120.39793 4501 ft 96 kts 153°
2026-04-30 12:40 14.17059 120.40026 4503 ft 96 kts 153°
2026-04-30 12:40 14.16435 120.40261 4504 ft 97 kts 153°
2026-04-30 12:40 14.15821 120.40533 4505 ft 95 kts 146°
2026-04-30 12:41 14.15228 120.40847 4502 ft 96 kts 146°
2026-04-30 12:41 14.14633 120.41162 4502 ft 96 kts 146°
2026-04-30 12:41 14.14037 120.41476 4503 ft 97 kts 146°
2026-04-30 12:41 14.13440 120.41793 4504 ft 99 kts 146°
2026-04-30 12:42 14.12824 120.42122 4503 ft 100 kts 146°
2026-04-30 12:42 14.12204 120.42454 4502 ft 101 kts 146°
2026-04-30 12:42 14.11578 120.42790 4498 ft 102 kts 146°
2026-04-30 12:42 14.10744 120.43239 4504 ft 102 kts 146°
2026-04-30 12:43 14.10316 120.43469 4508 ft 102 kts 146°
2026-04-30 12:43 14.09688 120.43809 4505 ft 103 kts 146°
2026-04-30 12:43 14.09050 120.44153 4508 ft 103 kts 146°
2026-04-30 12:43 14.08413 120.44498 4504 ft 104 kts 146°
2026-04-30 12:44 14.07782 120.44856 4509 ft 104 kts 144°
2026-04-30 12:44 14.07160 120.45219 4502 ft 104 kts 144°
2026-04-30 12:44 14.06527 120.45589 4509 ft 104 kts 144°
2026-04-30 12:44 14.05894 120.45957 4509 ft 104 kts 144°
2026-04-30 12:45 14.05267 120.46323 4510 ft 103 kts 144°
2026-04-30 12:45 14.04642 120.46690 4511 ft 103 kts 144°
2026-04-30 12:45 14.04021 120.47058 4509 ft 103 kts 144°
2026-04-30 12:45 14.03407 120.47421 4506 ft 103 kts 144°
2026-04-30 12:46 14.02786 120.47788 4509 ft 103 kts 144°
2026-04-30 12:46 14.02165 120.48157 4510 ft 103 kts 144°
2026-04-30 12:46 14.01545 120.48524 4504 ft 103 kts 144°
2026-04-30 12:46 14.00924 120.48892 4507 ft 103 kts 144°
2026-04-30 12:47 14.00310 120.49254 4509 ft 103 kts 144°
2026-04-30 12:47 13.99689 120.49619 4512 ft 103 kts 144°
2026-04-30 12:47 13.99066 120.49982 4505 ft 103 kts 144°
2026-04-30 12:47 13.98444 120.50344 4509 ft 103 kts 144°
2026-04-30 12:48 13.97822 120.50705 4512 ft 103 kts 144°
2026-04-30 12:48 13.97199 120.51065 4514 ft 102 kts 144°
2026-04-30 12:48 13.96578 120.51425 4513 ft 102 kts 144°
2026-04-30 12:48 13.95956 120.51787 4513 ft 102 kts 144°
2026-04-30 12:49 13.95341 120.52145 4515 ft 103 kts 144°
2026-04-30 12:49 13.94718 120.52508 4518 ft 103 kts 144°
2026-04-30 12:49 13.94095 120.52870 4520 ft 103 kts 144°
2026-04-30 12:49 13.93470 120.53233 4518 ft 103 kts 144°
2026-04-30 12:50 13.92845 120.53598 4517 ft 103 kts 144°
2026-04-30 12:50 13.92218 120.53963 4514 ft 103 kts 144°
2026-04-30 12:50 13.91595 120.54330 4516 ft 103 kts 144°
2026-04-30 12:50 13.90977 120.54694 4514 ft 104 kts 144°
2026-04-30 12:51 13.90349 120.55066 4522 ft 104 kts 144°
2026-04-30 12:51 13.89718 120.55438 4519 ft 104 kts 144°
2026-04-30 12:51 13.89088 120.55811 4521 ft 105 kts 144°
2026-04-30 12:51 13.88456 120.56184 4519 ft 105 kts 144°
2026-04-30 12:52 13.87824 120.56558 4514 ft 105 kts 144°
2026-04-30 12:52 13.87189 120.56933 4517 ft 105 kts 144°
2026-04-30 12:52 13.86554 120.57306 4514 ft 105 kts 144°
2026-04-30 12:52 13.85917 120.57679 4518 ft 105 kts 144°
2026-04-30 12:53 13.85287 120.58047 4516 ft 105 kts 144°
2026-04-30 12:53 13.84647 120.58423 4520 ft 106 kts 144°
2026-04-30 12:53 13.84004 120.58801 4523 ft 106 kts 144°
2026-04-30 12:53 13.83361 120.59181 4518 ft 106 kts 144°
2026-04-30 12:54 13.82726 120.59554 4519 ft 106 kts 144°
2026-04-30 12:54 13.82111 120.59971 4520 ft 104 kts 135°
2026-04-30 12:54 13.81548 120.60445 4516 ft 105 kts 135°
2026-04-30 12:54 13.80981 120.60921 4518 ft 105 kts 135°
2026-04-30 12:55 13.80413 120.61396 4514 ft 105 kts 135°
2026-04-30 12:55 13.79841 120.61870 4519 ft 105 kts 135°
2026-04-30 12:55 13.79277 120.62337 4523 ft 105 kts 135°
2026-04-30 12:55 13.78704 120.62810 4521 ft 106 kts 135°
2026-04-30 12:56 13.78133 120.63284 4520 ft 105 kts 135°
2026-04-30 12:56 13.77562 120.63759 4521 ft 105 kts 135°
2026-04-30 12:56 13.76990 120.64234 4522 ft 105 kts 135°
2026-04-30 12:56 13.76418 120.64707 4519 ft 105 kts 135°
2026-04-30 12:57 13.75855 120.65172 4521 ft 105 kts 135°
2026-04-30 12:57 13.75278 120.65645 4521 ft 104 kts 135°
2026-04-30 12:57 13.74719 120.66108 4520 ft 104 kts 135°
2026-04-30 12:57 13.74155 120.66578 4518 ft 104 kts 135°
2026-04-30 12:58 13.73591 120.67048 4522 ft 104 kts 135°
2026-04-30 12:58 13.73028 120.67515 4521 ft 104 kts 135°
2026-04-30 12:58 13.72468 120.67981 4522 ft 104 kts 135°
2026-04-30 12:58 13.71906 120.68446 4522 ft 104 kts 135°
2026-04-30 12:59 13.71351 120.68906 4523 ft 104 kts 135°
2026-04-30 12:59 13.70788 120.69372 4521 ft 104 kts 135°
2026-04-30 12:59 13.70226 120.69838 4522 ft 104 kts 135°
2026-04-30 12:59 13.69664 120.70305 4519 ft 104 kts 135°
2026-04-30 13:00 13.69102 120.70775 4524 ft 104 kts 135°
2026-04-30 13:00 13.68550 120.71241 4526 ft 104 kts 135°
2026-04-30 13:00 13.67986 120.71715 4520 ft 104 kts 135°
2026-04-30 13:00 13.67426 120.72185 4527 ft 105 kts 135°
2026-04-30 13:01 13.66863 120.72660 4529 ft 104 kts 135°
2026-04-30 13:01 13.66299 120.73136 4525 ft 104 kts 135°
2026-04-30 13:01 13.65738 120.73611 4528 ft 104 kts 135°
2026-04-30 13:01 13.65173 120.74087 4531 ft 105 kts 135°
2026-04-30 13:02 13.64614 120.74555 4531 ft 105 kts 135°
2026-04-30 13:02 13.64042 120.75034 4528 ft 106 kts 135°
2026-04-30 13:02 13.63471 120.75518 4535 ft 106 kts 135°
2026-04-30 13:02 13.62900 120.76002 4534 ft 106 kts 135°
2026-04-30 13:03 13.62331 120.76486 4531 ft 106 kts 135°
2026-04-30 13:03 13.61789 120.76997 4533 ft 105 kts 130°
2026-04-30 13:03 13.61280 120.77519 4530 ft 105 kts 130°
2026-04-30 13:03 13.60774 120.78058 4526 ft 104 kts 128°
2026-04-30 13:04 13.60288 120.78614 4524 ft 104 kts 127°
2026-04-30 13:04 13.59811 120.79180 4522 ft 104 kts 126°
2026-04-30 13:04 13.59335 120.79747 4525 ft 104 kts 126°
2026-04-30 13:04 13.58861 120.80314 4520 ft 104 kts 126°
2026-04-30 13:05 13.58391 120.80874 4528 ft 104 kts 126°
2026-04-30 13:05 13.57915 120.81439 4533 ft 104 kts 126°
2026-04-30 13:05 13.57440 120.82006 4538 ft 105 kts 126°
2026-04-30 13:06 13.56498 120.83148 4539 ft 105 kts 126°
2026-04-30 13:06 13.56027 120.83727 4541 ft 105 kts 126°
2026-04-30 13:06 13.55558 120.84307 4544 ft 106 kts 126°